Home   Weather   Aurich   Past weeks

Flag for Germany Past Weather in Aurich, Lower Saxony, Germany — Yesterday and Last 2 Weeks

Now
36 °F

Mostly cloudy.


Feels Like: 29 °F
Forecast: 42 / 48 °F
Wind: 8 mph from Southwest

Location: Wittmundhaven

Current Time: Feb 25, 2017 at 8:10:30 am

Latest Report: Feb 25, 2017 at 7:20 am


Visibility: 6 mi

Pressure: 30.04 "Hg

Humidity: 93%

Dew Point: 34 °F

Location of AurichLocation

Past Weather in Aurich — Graph

°F

Aurich Temperature Yesterday

Maximum temperature yesterday: 43 °F (at 11:20 am)
Minimum temperature yesterday: 34 °F (at 10:20 pm)
Average temperature yesterday: 39 °F

High & Low Weather Summary for the Past Weeks

 TemperatureHumidityPressure
High52 °F (Feb 15, 2:20 pm)100% (Feb 16, 6:20 am)30.57 "Hg (Feb 16, 6:20 am)
Low23 °F (Feb 10, 6:20 am)49% (Feb 14, 3:20 pm)28.91 "Hg (Feb 23, 7:20 pm)
Average39 °F85%30.07 "Hg
* Reported Feb 10 6:20 am — Feb 25 6:20 am, Aurich, Weather by CustomWeather, © 2017

Note: Actual official high and low records may vary slightly from our data, if they occured in-between our weather recording intervals... More about our weather records

Advertising

Aurich Weather History for the Previous 24 Hours

Scroll right to see more
 ConditionsComfort  
Time TempWeatherWind HumidityBarometerVisibility
6:20 am
Sat, Feb 25
34 °FChilly.7 mph100%30.04 "Hg5 mi
5:20 am34 °FChilly.6 mph93%30.04 "Hg6 mi
4:20 am32 °FChilly.5 mph100%30.04 "Hg6 mi
3:20 am34 °FChilly.6 mph93%30.04 "Hg6 mi
2:20 am34 °FChilly.5 mph93%30.07 "Hg6 mi
1:20 am34 °FChilly.6 mph93%30.04 "Hg6 mi
12:20 am34 °FChilly.6 mph93%30.04 "Hg6 mi
11:20 pm
Fri, Feb 24
36 °FChilly.7 mph87%30.04 "Hg6 mi
10:20 pm34 °FChilly.7 mph93%30.04 "Hg6 mi
9:20 pm36 °FChilly.6 mph87%30.01 "Hg6 mi
8:20 pm36 °FChilly.6 mph87%30.01 "HgN/A
7:20 pm37 °FChilly.8 mph81%29.98 "HgN/A
6:20 pm37 °FPassing clouds.12 mph81%29.95 "HgN/A
5:20 pm39 °FPassing clouds.12 mph81%29.92 "HgN/A
4:20 pm43 °FPassing clouds.12 mph71%29.89 "HgN/A
3:44 pm41 °FSnow flurries. Scattered clouds.15 mph76%29.89 "Hg6 mi
3:20 pm41 °FScattered clouds.15 mph76%29.86 "HgN/A
2:20 pm43 °FScattered clouds.16 mph71%29.86 "HgN/A
1:20 pm43 °FScattered clouds.17 mph71%29.83 "HgN/A
12:20 pm43 °FScattered clouds.17 mph66%29.83 "HgN/A
11:20 am43 °FPassing clouds.14 mph66%29.80 "HgN/A
10:20 am41 °FPassing clouds.13 mph66%29.77 "HgN/A
9:20 am39 °FPassing clouds.12 mph81%29.71 "HgN/A
8:20 am37 °FPartly sunny.15 mph81%29.68 "HgN/A
Weather by CustomWeather, © 2017

See weather overviewHow to use our weather pages